Location: Fouquenies
(49.4624°N, 2.0492°E)
Time: 15:13:06
(UTC+00:00)

STARS - Visible Passes

Search period start: 13 July 2025 00:00
Search period end: 23 July 2025 00:00
Orbit: 586 x 597 km, 98.1° (Epoch: 12 July)

Date Brightness Start Highest point End Pass type
(mag) Time Alt. Az. Time Alt. Az. Time Alt. Az.
13 Jul ? 00:12:41 10° NE 00:15:48 20° E 00:17:20 17° ESE visible
13 Jul ? 01:47:32 10° N 01:51:34 46° WNW 01:53:54 22° SW visible
14 Jul ? 00:20:56 10° NE 00:24:21 24° E 00:25:51 20° SE visible
14 Jul ? 01:56:06 10° N 01:59:59 38° WNW 02:02:25 20° SW visible
15 Jul ? 00:29:14 10° NE 00:32:54 29° E 00:34:23 23° SE visible
15 Jul ? 02:04:40 10° N 02:08:25 32° WNW 02:10:57 17° WSW visible
16 Jul ? 00:37:34 10° NNE 00:41:24 34° E 00:42:54 26° SE visible
16 Jul ? 02:13:16 10° N 02:16:49 27° WNW 02:19:28 15° WSW visible
17 Jul ? 00:45:56 10° NNE 00:49:55 41° E 00:51:25 30° SE visible
17 Jul ? 02:21:54 10° N 02:25:13 23° WNW 02:27:59 13° WSW visible
18 Jul ? 00:54:20 10° NNE 00:58:25 50° E 00:59:55 33° SSE visible
18 Jul ? 02:30:33 10° NNW 02:33:37 20° WNW 02:36:29 11° WSW visible
19 Jul ? 01:02:44 10° NNE 01:06:54 61° ESE 01:08:26 36° SSE visible
19 Jul ? 02:39:16 10° NNW 02:41:59 17° WNW 02:44:41 10° W visible
20 Jul ? 01:11:10 10° NNE 01:15:22 75° ESE 01:16:56 37° S visible
20 Jul ? 02:48:02 10° NNW 02:50:20 15° WNW 02:52:38 10° W visible
20 Jul ? 23:47:00 10° ENE 23:47:40 10° E 23:48:21 10° E visible
21 Jul ? 01:19:37 10° NNE 01:23:49 90° WSW 01:25:25 37° SSW visible
21 Jul ? 02:56:55 10° NNW 02:58:41 12° NW 03:00:27 10° W visible
21 Jul ? 23:54:22 10° ENE 23:56:13 13° E 23:57:20 12° ESE visible
22 Jul ? 01:28:05 10° N 01:32:16 75° WNW 01:33:54 36° SSW visible
22 Jul ? 03:06:08 10° NW 03:07:01 11° NW 03:07:53 10° WNW visible
